This is the latest recevied weather packets stored in our database for station/object WW5JC. If no packets are shown the sender has not sent any weather packets the latest 1 day(s).
| Time | Temp. | Humidity | Pressure | Rain* | Wind** | Luminosity | Snow |
|---|---|---|---|---|---|---|---|
| 1778038559 | 16.67° C | 84% | 1010.1 hPa | 0 mm | 4.92 m/s, 355° | 0 W/m² | - |
| 1778038256 | 17.22° C | 84% | 1009.8 hPa | 0 mm | 5.36 m/s, 349° | 0 W/m² | - |
| 1778037954 | 17.78° C | 86% | 1009.9 hPa | 0 mm | 2.24 m/s, 325° | 0 W/m² | - |
| 1778037650 | 17.78° C | 85% | 1009.7 hPa | 0 mm | 1.79 m/s, 313° | 0 W/m² | - |
| 1778037348 | 17.78° C | 85% | 1009.4 hPa | 0 mm | 2.24 m/s, 346° | 0 W/m² | - |
| 1778037045 | 17.78° C | 85% | 1009.5 hPa | 0 mm | 0.89 m/s, 328° | 0 W/m² | - |
| 1778036743 | 18.33° C | 85% | 1009.4 hPa | 0 mm | 0.89 m/s, 335° | 0 W/m² | - |
| 1778036440 | 18.33° C | 85% | 1009.2 hPa | 0 mm | 2.68 m/s, 270° | 0 W/m² | - |
| 1778036137 | 18.33° C | 84% | 1008.9 hPa | 0 mm | 1.34 m/s, 326° | 0 W/m² | - |
| 1778035832 | 18.33° C | 85% | 1009 hPa | 0 mm | 2.24 m/s, 302° | 0 W/m² | - |
| 1778035529 | 18.89° C | 84% | 1009 hPa | 0 mm | 1.79 m/s, 272° | 0 W/m² | - |
| 1778035226 | 18.89° C | 84% | 1008.7 hPa | 0 mm | 3.13 m/s, 348° | 0 W/m² | - |
| 1778034922 | 19.44° C | 83% | 1008.8 hPa | 0 mm | 4.02 m/s, 326° | 0 W/m² | - |
| 1778034620 | 19.44° C | 83% | 1008.9 hPa | 0 mm | 3.13 m/s, 332° | 0 W/m² | - |
| 1778034317 | 20° C | 84% | 1008.3 hPa | 0 mm | 3.58 m/s, 352° | 0 W/m² | - |
| 1778034015 | 20° C | 84% | 1008.1 hPa | 0 mm | 1.34 m/s, 342° | 0 W/m² | - |
| 1778033712 | 20° C | 84% | 1008.3 hPa | 0 mm | 0.89 m/s, 335° | 0 W/m² | - |
| 1778033409 | 20.56° C | 84% | 1008.3 hPa | 0 mm | 0.89 m/s, 338° | 0 W/m² | - |
| 1778033106 | 20.56° C | 83% | 1008.5 hPa | 0 mm | 3.58 m/s, 312° | 0 W/m² | - |
| 1778032803 | 20.56° C | 83% | 1008.6 hPa | 0 mm | 3.13 m/s, 323° | 0 W/m² | - |
| 1778032501 | 21.11° C | 82% | 1007.7 hPa | 0 mm | 2.24 m/s, 358° | 0 W/m² | - |
| 1778032197 | 21.67° C | 82% | 1007.2 hPa | 0 mm | 2.68 m/s, 340° | 0 W/m² | - |
| 1778031894 | 21.67° C | 82% | 1007.5 hPa | 0 mm | 1.34 m/s, 296° | 0 W/m² | - |
| 1778031591 | 22.22° C | 81% | 1007.9 hPa | 0 mm | 1.79 m/s, 303° | 0 W/m² | - |
| 1778031289 | 22.22° C | 80% | 1007.3 hPa | 0 mm | 1.79 m/s, 323° | 0 W/m² | - |
* Rain latest hour (hover to see other rain measurements)
** Current wind speed in m/s (hover to see current wind gust speed)